Weather History for Binghamton, NY

Change the Weather History Date:

Wednesday, February 27, 2013

  Actual Average Record
Temperature  
Mean Temperature 33 °F 27 °F  
Max Temperature 35 °F 35 °F 62 °F (1997)
Min Temperature 30 °F 20 °F -5 °F (1963)
Degree Days  
Heating Degree Days 32 38  
Month to date heating degree days 1109 1090  
Since 1 July heating degree days 4852 5162  
Cooling Degree Days 0 0  
Month to date cooling degree days 0 0  
Year to date cooling degree days 0 0  
Moisture  
Dew Point 31 °F    
Average Humidity 93    
Maximum Humidity 100    
Minimum Humidity 85    
Precipitation  
Precipitation 0.62 in 0.09 in 0.85 in (1997)
Month to date precipitation 2.13 2.22  
Year to date precipitation 4.38 4.67  
Snow  
Snow 1.10 in 0.60 in 11.00 in (2007)
Month to date snowfall 18.4 16.5  
Since 1 July snowfall 52.6 63.3  
Snow Depth 4.00 in    
Sea Level Pressure  
Sea Level Pressure 29.58 in    
Wind  
Wind Speed 8 mph (NNE)    
Max Wind Speed 17 mph    
Max Gust Speed 23 mph    
Visibility 4 miles    
Events Fog , Rain , Snow    
T = Trace of Precipitation, MM = Missing Value Source: NWS Daily Summary

Daily Weather History Graph

Daily Weather History Graph

Search for Another Location

Airport:

Trip Planner

Search our weather history database for the weather conditions in past years. The results will help you decide how hot, cold, wet, or windy it might be!

Date:

Astronomy

Feb. 27, 2013 Rise Set
Actual Time 6:41 AM EST 5:51 PM EST
Civil Twilight 6:13 AM EST 6:19 PM EST
Nautical Twilight 5:41 AM EST 6:52 PM EST
Astronomical Twilight 5:08 AM EST 7:24 PM EST
Moon 8:14 PM EST (2/27) 7:12 AM EST (2/27)
Length of Visible Light 12h 06m
Length of Day
11h 09m
Waning Gibbous, 96% of the Moon is Illuminated
Feb 27
Waning Gibbous
Mar 4
Last Quarter
Mar 11
New
Mar 19
First Quarter
Mar 27
Full

Hourly Weather History & Observations

Time (EST) Temp. Windchill Dew Point Humidity Pressure Visibility Wind Dir Wind Speed Gust Speed Precip Events Conditions
12:53 AM 30.0 °F 20.5 °F 27.0 °F 88% 29.84 in 2.5 mi East 11.5 mph - 0.05 in Snow Snow
1:02 AM 30.2 °F 19.3 °F 26.6 °F 86% 29.78 in 5.0 mi East 15.0 mph 23.0 mph 0.02 in Snow Snow
1:50 AM 30.2 °F 20.8 °F 28.4 °F 93% 29.75 in 6.0 mi East 11.5 mph - 0.05 in Snow Snow
1:53 AM 30.0 °F 21.1 °F 28.0 °F 92% 29.79 in 6.0 mi ENE 10.4 mph - 0.05 in Snow Snow
2:53 AM 30.9 °F 21.7 °F 28.0 °F 89% 29.73 in 6.0 mi East 11.5 mph 20.7 mph 0.02 in Snow Snow
3:53 AM 30.9 °F 21.2 °F 28.9 °F 92% 29.70 in 9.0 mi East 12.7 mph - 0.04 in Snow Snow
4:45 AM 30.2 °F 20.8 °F 28.4 °F 93% 29.62 in 9.0 mi East 11.5 mph - 0.00 in Snow Snow
4:53 AM 30.9 °F 20.7 °F 28.9 °F 92% 29.66 in 9.0 mi East 13.8 mph - 0.00 in Snow Snow
5:35 AM 30.2 °F 20.2 °F 28.4 °F 93% 29.59 in 6.0 mi East 12.7 mph - 0.00 in Snow Snow
5:53 AM 32.0 °F 23.0 °F 28.9 °F 88% 29.64 in 9.0 mi East 11.5 mph - 0.00 in Snow Snow
5:55 AM 32.0 °F 23.6 °F 28.4 °F 87% 29.59 in 9.0 mi East 10.4 mph - 0.00 in Snow Snow
6:46 AM 32.0 °F 24.8 °F 30.2 °F 93% 29.57 in 4.0 mi East 8.1 mph - 0.00 in   Overcast
6:53 AM 32.0 °F 24.2 °F 30.2 °F 93% 29.57 in 4.0 mi East 9.2 mph - N/A   Overcast
7:25 AM 32.0 °F 22.5 °F 30.2 °F 93% 29.56 in 7.0 mi ENE 12.7 mph - N/A   Overcast
7:53 AM 32.0 °F 23.0 °F 30.9 °F 96% 29.60 in 7.0 mi East 11.5 mph - N/A   Overcast
8:00 AM 33.8 °F 26.4 °F 30.2 °F 87% 29.56 in 2.5 mi ENE 9.2 mph - N/A   Overcast
8:10 AM 33.8 °F 26.4 °F 30.2 °F 87% 29.55 in 2.5 mi ENE 9.2 mph - 0.00 in Rain Light Rain
8:53 AM 33.1 °F 26.1 °F 30.9 °F 92% 29.59 in 2.0 mi East 8.1 mph - 0.01 in   Overcast
9:34 AM 33.8 °F 27.7 °F 30.2 °F 87% 29.53 in 0.8 mi ENE 6.9 mph - 0.00 in   Overcast
9:53 AM 33.1 °F 26.9 °F 32.0 °F 96% 29.57 in 0.8 mi East 6.9 mph - 0.00 in   Overcast
9:58 AM 33.8 °F 26.4 °F 32.0 °F 93% 29.53 in 3.0 mi ENE 9.2 mph - N/A   Overcast
10:22 AM 33.8 °F 27.0 °F 32.0 °F 93% 29.52 in 3.0 mi ENE 8.1 mph - N/A   Overcast
10:53 AM 35.1 °F 29.3 °F 33.1 °F 92% 29.56 in 3.0 mi East 6.9 mph - 0.01 in Rain Light Rain
11:06 AM 35.6 °F 32.8 °F 33.8 °F 93% 29.52 in 1.0 mi NNW 3.5 mph - 0.01 in Rain Light Rain
11:09 AM 35.6 °F - 33.8 °F 93% 29.52 in 0.5 mi Calm Calm - 0.01 in Rain Light Rain
11:17 AM 33.8 °F 30.8 °F 32.0 °F 93% 29.52 in 0.5 mi NW 3.5 mph - 0.01 in Fog , Rain Rain
11:48 AM 33.8 °F 29.6 °F 32.0 °F 93% 29.52 in 2.5 mi North 4.6 mph - 0.05 in Rain Rain
11:53 AM 33.8 °F 28.6 °F 32.0 °F 93% 29.52 in 2.5 mi North 5.8 mph - N/A Rain Rain
12:06 PM 33.8 °F 25.8 °F 32.0 °F 93% 29.53 in 1.5 mi West 10.4 mph - 0.04 in Rain Rain
12:10 PM 33.8 °F 25.8 °F 32.0 °F 93% 29.53 in 0.5 mi West 10.4 mph - 0.05 in Fog , Rain Rain
12:18 PM 33.8 °F 26.4 °F 32.0 °F 93% 29.53 in 0.2 mi West 9.2 mph - 0.08 in Fog , Rain Heavy Rain
12:25 PM 33.8 °F 27.7 °F 32.0 °F 93% 29.53 in 0.5 mi West 6.9 mph - 0.11 in Fog , Snow Light Snow
12:53 PM 32.0 °F 24.8 °F 30.9 °F 96% 29.58 in 0.5 mi West 8.1 mph - 0.19 in Fog , Snow Snow
1:06 PM 32.0 °F 25.6 °F 30.2 °F 93% 29.53 in 0.2 mi West 6.9 mph - 0.03 in Fog , Snow Heavy Snow
1:45 PM 32.0 °F 26.4 °F 30.2 °F 93% 29.52 in 0.2 mi NNW 5.8 mph - 0.09 in Snow Light Snow
1:53 PM 32.0 °F 25.6 °F 30.9 °F 96% 29.56 in 0.2 mi North 6.9 mph - 0.10 in Snow Light Snow
1:55 PM 32.0 °F 25.6 °F 30.2 °F 93% 29.51 in 0.5 mi North 6.9 mph - 0.00 in Snow Light Snow
2:25 PM 33.8 °F 28.6 °F 30.2 °F 87% 29.50 in 1.0 mi NE 5.8 mph - 0.03 in Rain Light Rain
2:49 PM 33.8 °F 29.6 °F 30.2 °F 87% 29.50 in 1.0 mi NE 4.6 mph - 0.04 in Snow Light Snow
2:53 PM 33.1 °F 28.7 °F 32.0 °F 96% 29.55 in 1.0 mi NNE 4.6 mph - 0.04 in Snow Light Snow
3:53 PM 33.1 °F - 32.0 °F 96% 29.56 in 1.0 mi Calm Calm - 0.02 in   Overcast
4:29 PM 33.8 °F 27.7 °F 30.2 °F 87% 29.52 in 0.5 mi WSW 6.9 mph - 0.02 in Fog , Snow Light Snow
4:48 PM 32.0 °F 25.6 °F 30.2 °F 93% 29.52 in 0.2 mi WSW 6.9 mph - 0.02 in Fog , Snow Light Snow
4:53 PM 33.1 °F 26.9 °F 30.9 °F 92% 29.57 in 0.2 mi West 6.9 mph - 0.02 in Fog , Snow Light Snow
5:53 PM 33.1 °F 25.5 °F 30.9 °F 92% 29.58 in 0.2 mi WSW 9.2 mph - 0.00 in Fog Fog
6:17 PM 33.8 °F 28.6 °F 32.0 °F 93% 29.53 in 0.5 mi WSW 5.8 mph - N/A   Mist
6:40 PM 33.8 °F 27.0 °F 32.0 °F 93% 29.54 in 1.0 mi WSW 8.1 mph - 0.00 in Rain Light Rain
6:53 PM 33.1 °F 26.1 °F 32.0 °F 96% 29.59 in 0.8 mi WSW 8.1 mph - 0.00 in Rain Light Rain
7:53 PM 34.0 °F 26.6 °F 32.0 °F 92% 29.59 in 0.8 mi WSW 9.2 mph - 0.00 in   Overcast
8:22 PM 33.8 °F 25.8 °F 32.0 °F 93% 29.55 in 10.0 mi WSW 10.4 mph - 0.00 in Rain Light Rain
8:53 PM 34.0 °F 27.2 °F 32.0 °F 92% 29.60 in 10.0 mi SW 8.1 mph - 0.00 in   Overcast
9:00 PM 33.8 °F 27.7 °F 32.0 °F 93% 29.55 in 10.0 mi SW 6.9 mph - N/A   Overcast
9:53 PM 34.0 °F 27.2 °F 33.1 °F 96% 29.60 in 10.0 mi SW 8.1 mph - N/A   Overcast
10:00 PM 33.8 °F 27.0 °F 32.0 °F 93% 29.56 in 10.0 mi SW 8.1 mph - N/A   Overcast
10:08 PM 33.8 °F 27.7 °F 32.0 °F 93% 29.56 in 10.0 mi SW 6.9 mph - 0.00 in Rain Light Rain
10:34 PM 33.8 °F 28.6 °F 33.8 °F 100% 29.55 in 10.0 mi SSW 5.8 mph - 0.00 in   Overcast
10:45 PM 33.8 °F 29.6 °F 33.8 °F 100% 29.56 in 10.0 mi SSW 4.6 mph - 0.00 in   Overcast
10:53 PM 34.0 °F 29.8 °F 33.1 °F 96% 29.60 in 10.0 mi SW 4.6 mph - 0.00 in Rain Light Rain
11:02 PM 33.8 °F 27.0 °F 33.8 °F 100% 29.55 in 10.0 mi SW 8.1 mph - 0.00 in Rain Light Rain
11:09 PM 33.8 °F 27.7 °F 33.8 °F 100% 29.55 in 10.0 mi SW 6.9 mph - 0.00 in Rain Light Rain
11:53 PM 34.0 °F 27.2 °F 33.1 °F 96% 29.58 in 8.0 mi SW 8.1 mph - 0.01 in Rain Light Rain